Regional Weather Roundup
Issued by NWS

Home | Current Version | Previous Version | Graphics & Text | Print | Product List | Glossary On
Versions: 1 2 3 4 5 6 7 8 9 10 11 12 13 14 15 16 17 18 19 20 21 22 23 24 25 26 27 28 29 30 31 32 33 34 35 36 37 38 39 40 41 42 43 44 45 46 47 48 49 50
000
ASUS43 KTOP 251608
RWRKS

WEATHER ROUNDUP FOR KANSAS
NATIONAL WEATHER SERVICE GOODLAND KS
1100 AM CDT MON MAY 25 2015

NOTE:  "FAIR" INDICATES FEW OR NO CLOUDS BELOW 12,000 FEET WITH NO
SIGNIFICANT WEATHER AND/OR OBSTRUCTIONS TO VISIBILITY.

KSZ001>006-013>018-027>032-041>047-251700-
NORTHWEST KANSAS

CITY           SKY/WX    TMP DP  RH WIND       PRES   REMARKS
GOODLAND       MOSUNNY   62  51  67 NW14      29.84F
HAYS           CLOUDY    63  54  72 S10       29.82R
HILL CITY      MOSUNNY   65  56  72 VRB3      29.80F
RUSSELL        PTSUNNY   66  61  84 S17       29.79S
$$

KSZ061>065-074>080-084>089-251700-
SOUTHWEST KANSAS

CITY           SKY/WX    TMP DP  RH WIND       PRES   REMARKS
DODGE CITY     CLOUDY    62  59  90 NW6       29.84R
ELKHART          N/A     66  49  54 NE3         N/A
GARDEN CITY    SUNNY     64  54  69 N6        29.84R
GREAT BEND     CLOUDY    61  57  88 SE6       29.82R
LIBERAL        MOSUNNY   64  55  72 NW6       29.87R
PRATT          PTSUNNY   70  63  78 S14       29.82S
$$

KSZ066>073-081>083-090>101-251700-
SOUTHEAST KANSAS

CITY           SKY/WX    TMP DP  RH WIND       PRES   REMARKS
CHANUTE        PTSUNNY   74  67  78 S16       29.89F
COFFEYVILLE    CLOUDY    72  69  90 S10       29.91R
HUTCHINSON     CLOUDY    66  62  87 SE10      29.84R
MEDICINE LODGE   N/A     73  66  78 S16G22    29.81S
NEWTON         CLOUDY    64  61  88 S12G17    29.87R
PARSONS        PTSUNNY   73  68  84 S8        29.92S
WICHITA INTL   PTSUNNY   73  67  81 S26G32    29.82S
WICHITA JABRA  CLOUDY    73  67  81 S22G30    29.83S
WICHITA MCCONL CLOUDY    72  67  85 SE17G28   29.84R
WINFIELD       CLOUDY    71  68  90 S13       29.88R
$$

KSZ007>012-019>026-033>040-048>060-102>105-251700-
NORTHEAST KANSAS

CITY           SKY/WX    TMP DP  RH WIND       PRES   REMARKS
CONCORDIA      CLOUDY    66  59  77 S12G20    29.80F
EMPORIA        PTSUNNY   72  64  76 S18G26    29.85F
LAWRENCE       SUNNY     72  62  71 SE13      29.87F
MANHATTAN      CLOUDY    70  61  73 S13       29.83F
OLATHE IND     SUNNY     71  62  73 SE17      29.89F
OLATHE EXE     SUNNY     71  63  75 S15       29.88F
SALINA         CLOUDY    68  62  81 SE13      29.84R
TOPEKA BILLARD MOSUNNY   72  61  68 SE14      29.85F
TOPEKA FORBES  MOSUNNY   73  61  65 SE18      29.84F
$$



USA.gov is the U.S. government's official web portal to all federal, state and local government web resources and services.